[[{"header":{"parameterUnit":"m.s-1","parameterCategory":1,"la1":30.2992,"la2":30.254,"lo1":-89.0895,"lo2":-89.0443,"dy":0.0025,"dx":0.0025,"nx":19,"ny":19,"refTime":"2026-05-01T03:00:00:Z","depth":0,"parameterNumber":2,"parameterNumberName":"U-component_of_WINDS"},"data":[0,0,0,-1.9207,-1.9207,-1.9242,-1.9242,-1.9294,-1.9294,0,0,0,0,0,0,0,0,0,0,0,-1.9201,-1.9202,-1.9206,-1.9207,-1.9242,-1.9242,-1.9294,-1.9294,0,0,0,0,0,0,0,0,0,0,0,-1.9201,-1.9201,-1.9202,-1.9208,-1.9242,-1.9242,-1.9294,-1.9265,0,0,0,0,0,0,0,0,0,0,-1.923,-1.923,-1.9201,-1.9202,-1.9208,-1.9242,-1.9242,-1.9263,-1.9266,-1.9281,0,-1.9296,0,-1.9296,-1.9298,-1.9298,0,0,0,-1.9204,-1.9227,-1.9232,-1.9202,-1.9208,-1.9242,-1.9226,-1.9265,-1.9269,-1.9286,-1.9297,-1.9298,-1.9297,-1.9299,-1.9299,-1.9397,-1.9398,0,0,-1.9202,-1.921,-1.9229,-1.9234,-1.923,-1.9224,-1.9227,-1.9267,-1.928,-1.9297,-1.9299,-1.9298,-1.9299,-1.9299,-1.9396,-1.9397,0,0,0,-1.9199,-1.9209,-1.9213,-1.9233,-1.9238,-1.9226,-1.9228,-1.9278,-1.9278,-1.93,-1.9298,-1.9299,-1.93,-1.9396,-1.9397,-1.9437,0,0,0,-1.9197,-1.9207,-1.9212,-1.9217,-1.9238,-1.9259,-1.9238,-1.9276,-1.928,-1.9298,-1.9299,-1.9301,-1.9395,-1.9396,-1.9434,-1.9454,0,0,0,-1.9197,-1.9207,-1.9214,-1.9218,-1.9233,-1.9258,-1.9261,-1.9276,-1.9279,-1.9298,-1.9301,-1.9395,-1.9396,-1.9432,-1.9451,-1.9483,0,0,0,-1.9199,-1.9248,-1.9214,-1.9269,-1.9233,-1.9282,-1.926,-1.9297,-1.9318,-1.93,-1.9395,-1.9397,-1.9431,-1.9448,-1.9481,-1.9512,-1.9526,0,0,-1.9266,-1.9257,-1.9288,-1.9259,-1.9316,-1.9276,-1.9339,-1.9351,-1.9345,-1.938,-1.9382,-1.9435,-1.945,-1.9482,-1.96,-1.9611,0,0,0,-1.9312,-1.9335,-1.9348,-1.9369,-1.9379,-1.9389,-1.939,-1.9394,-1.9423,-1.9365,-1.9455,-1.9464,-1.9482,-1.9497,-1.9506,-1.9522,-1.9404,-1.9403,-1.9403,-1.9419,-1.9409,-1.946,-1.9453,-1.9474,-1.9474,-1.9489,-1.9495,-1.9478,-1.95,-1.951,-1.9583,-1.96,-1.9607,-1.9624,-1.9525,-1.9526,-1.9526,-1.9526,-1.9516,-1.9547,-1.9523,-1.9565,-1.9553,-1.9587,-1.9589,-1.9576,-1.9606,-1.9574,-1.959,-1.9557,-1.962,-1.9634,-1.9529,-1.9528,-1.9528,-1.9528,-1.9527,-1.9586,-1.9599,-1.9603,-1.9632,-1.9655,-1.9646,-1.9676,-1.9664,-1.9653,-1.9668,-1.9678,-1.9678,-1.9676,-1.9674,-1.9674,-1.9674,-1.9674,-1.9675,-1.9675,-1.9657,-1.966,-1.9687,-1.9702,-1.9713,-1.9727,-1.9726,-1.9737,-1.9746,-1.9735,-1.9735,-1.9717,-1.9628,-1.9606,-1.9679,-1.9678,-1.9678,-1.9677,-1.9677,-1.9762,-1.9736,-1.9778,-1.9789,-1.9804,-1.9828,-1.9812,-1.9835,-1.9842,-1.9857,-1.9834,-1.977,-1.976,-1.9753,-1.9735,-1.9836,-1.9836,-1.9836,-1.9836,-1.9821,-1.9814,-1.9854,-1.9873,-1.989,-1.988,-1.9927,-1.9926,-1.9922,-1.9926,-1.9909,-1.9884,-1.9876,-1.9871,-1.986,-1.9844,-1.9971,-1.9971,-1.9971,-1.9885,-1.9879,-1.9922,-1.9918,-1.9928,-1.9938,-1.9981,-2.0003,-1.9993,-1.9976,-1.9928,-1.9923,-1.9882,-1.9869,-1.9852,-1.9837,-1.9806,0,0]},{"header":{"parameterUnit":"m.s-1","parameterCategory":1,"la1":30.2992,"la2":30.254,"lo1":-89.0895,"lo2":-89.0443,"dy":0.0025,"dx":0.0025,"nx":19,"ny":19,"refTime":"2026-05-01T03:00:00:Z","depth":0,"parameterNumber":3,"parameterNumberName":"V-component_of_WINDS"},"data":[0,0,0,-8.0383,-8.0386,-8.0525,-8.0526,-8.0712,-8.0714,0,0,0,0,0,0,0,0,0,0,0,-8.035,-8.0351,-8.0382,-8.0386,-8.0525,-8.0526,-8.0712,-8.0714,0,0,0,0,0,0,0,0,0,0,0,-8.0349,-8.0351,-8.0353,-8.0387,-8.0525,-8.0526,-8.0711,-8.0602,0,0,0,0,0,0,0,0,0,0,-8.0466,-8.0444,-8.0351,-8.0353,-8.0388,-8.0525,-8.0526,-8.0597,-8.0609,-8.0654,0,-8.0699,0,-8.071,-8.0727,-8.0728,0,0,0,-8.0379,-8.0434,-8.0465,-8.0353,-8.0389,-8.0525,-8.046,-8.0604,-8.0618,-8.067,-8.0701,-8.0708,-8.0713,-8.0728,-8.0729,-8.1021,-8.1023,0,0,-8.0371,-8.0378,-8.0455,-8.0474,-8.0457,-8.0456,-8.0465,-8.0612,-8.0645,-8.0702,-8.0712,-8.0716,-8.073,-8.0731,-8.102,-8.1022,0,0,0,-8.0354,-8.0373,-8.04,-8.0467,-8.0491,-8.046,-8.047,-8.0638,-8.0646,-8.0714,-8.0718,-8.0731,-8.0733,-8.1018,-8.1021,-8.1116,0,0,0,-8.0349,-8.0363,-8.0397,-8.0403,-8.0489,-8.0567,-8.0493,-8.0636,-8.0653,-8.0717,-8.0731,-8.0735,-8.1016,-8.1019,-8.1109,-8.1159,0,0,0,-8.0338,-8.0362,-8.0385,-8.0403,-8.0463,-8.0565,-8.0581,-8.064,-8.0656,-8.0728,-8.0736,-8.1015,-8.1019,-8.1103,-8.1149,-8.124,0,0,0,-8.0326,-8.0464,-8.0387,-8.0541,-8.0462,-8.0623,-8.058,-8.0698,-8.0771,-8.0732,-8.1016,-8.102,-8.1101,-8.1143,-8.1234,-8.132,-8.1356,0,0,-8.0503,-8.0485,-8.0576,-8.0511,-8.0689,-8.0601,-8.0791,-8.0849,-8.0846,-8.0962,-8.0969,-8.1111,-8.1148,-8.1239,-8.1554,-8.1583,0,0,0,-8.0634,-8.07,-8.0745,-8.0818,-8.0868,-8.0916,-8.0944,-8.0966,-8.1066,-8.0909,-8.1167,-8.1189,-8.1242,-8.1283,-8.1308,-8.1353,-8.1039,-8.1039,-8.1038,-8.0893,-8.0888,-8.1038,-8.105,-8.1121,-8.1152,-8.1208,-8.1242,-8.1211,-8.1273,-8.1308,-8.15,-8.1548,-8.1566,-8.1614,-8.1351,-8.1351,-8.1352,-8.1352,-8.1153,-8.1246,-8.1208,-8.134,-8.1332,-8.1442,-8.1477,-8.1452,-8.1552,-8.1472,-8.1518,-8.1433,-8.1598,-8.164,-8.1359,-8.1358,-8.1357,-8.1356,-8.1356,-8.1324,-8.1368,-8.1395,-8.1503,-8.1586,-8.1591,-8.1691,-8.1679,-8.1667,-8.1713,-8.175,-8.1748,-8.1747,-8.1731,-8.1732,-8.1733,-8.1733,-8.1734,-8.1734,-8.149,-8.1519,-8.1607,-8.1676,-8.1723,-8.1783,-8.1817,-8.1861,-8.1908,-8.189,-8.1891,-8.1856,-8.1616,-8.1557,-8.1745,-8.1743,-8.1741,-8.174,-8.174,-8.1759,-8.1697,-8.1833,-8.1881,-8.1962,-8.2047,-8.2031,-8.2124,-8.2159,-8.2209,-8.2165,-8.1989,-8.1968,-8.1948,-8.19,-8.2165,-8.2165,-8.2165,-8.2165,-8.1904,-8.1894,-8.2032,-8.211,-8.2185,-8.2186,-8.2339,-8.2367,-8.2385,-8.2407,-8.2366,-8.23,-8.228,-8.2271,-8.2244,-8.2199,-8.2534,-8.2534,-8.2535,-8.207,-8.2067,-8.2201,-8.2223,-8.2287,-8.2341,-8.2485,-8.2574,-8.2581,-8.255,-8.2423,-8.2408,-8.2301,-8.2266,-8.2232,-8.2191,-8.2107,0,0]}]]